Terminal Aerodrome Forecast
Issued by NWS St Louis, MO

Home | Current Version | Previous Version | Text Only | Print | Product List | Glossary On
Versions: 1 2 3 4 5 6 7 8 9 10 11 12 13 14 15 16 17 18 19 20 21 22 23 24 25 26
000
FTUS43 KLSX 221700
TAFSTL
TAF
KSTL 221739Z 2218/2324 35012G18KT P6SM SKC
     FM230100 01006KT P6SM SKC
     FM230600 VRB04KT P6SM SCT250
     FM231400 12008KT P6SM SCT100 BKN250
     FM232100 13011KT P6SM SCT100 BKN250=

USA.gov is the U.S. government's official web portal to all federal, state and local government web resources and services.